Flag Weather past 2 weeks in New City, New York, U.S.A.

Now
27 °F

Clear.


Feels Like: 17 °F
Forecast: 17 / 35 °F
Wind: 12 mph from Northwest

Location: Westchester County Airport

Current Time: Nov 28, 2014 at 7:46:54 PM

Latest Report: Nov 28, 2014 at 6:56 PM


Visibility: 10 mi

Pressure: 30.23 "Hg

Humidity: 53%

Dew point: 12 °F

Location of New CityLocation

Historic Weather in New City — Graph

°F

New City temperature yesterday

Maximum temperature yesterday: 35 °F (at 12:56 PM)
Minimum temperature yesterday: 32 °F (at 10:56 PM)
Average temperature yesterday: 34 °F

Past Weeks' High & Low Weather Summary

 TemperatureHumidityPressure
High65 °F (Nov 25, 12:56 AM)100% (Nov 17, 3:58 AM)30.50 "Hg (Nov 17, 3:58 AM)
Low20 °F (Nov 19, 4:56 AM)29% (Nov 18, 12:56 PM)29.50 "Hg (Nov 17, 7:56 PM)
Average38 °F60%30.05 "Hg
* Reported Nov 13 6:56 PM — Nov 28 6:56 PM, New City, Weather by CustomWeather, © 2014

Note: Actual official high and low records may vary slightly from our data, if they occured in-between our weather recording intervals... More about our weather records

Advertising

New City weather history for previous 24 hours

 ConditionsComfort  
Time TempWeatherWind HumidityBarometerVisibility
6:56 PM
Nov 28
27 °FClear.12 mph53%30.23 "Hg10 mi
5:56 PM28 °FClear.15 mph51%30.23 "Hg10 mi
4:56 PM29 °FPassing clouds.16 mph51%30.21 "Hg10 mi
3:56 PM31 °FScattered clouds.16 mph49%30.19 "Hg10 mi
2:56 PM33 °FScattered clouds.13 mph52%30.16 "Hg10 mi
1:56 PM34 °FScattered clouds.15 mph52%30.14 "Hg10 mi
12:56 PM35 °FPartly sunny.16 mph56%30.13 "Hg10 mi
11:56 AM34 °FScattered clouds.15 mph59%30.14 "Hg10 mi
10:56 AM33 °FScattered clouds.22 mph56%30.15 "Hg10 mi
9:56 AM32 °FScattered clouds.21 mph61%30.16 "Hg10 mi
8:56 AM31 °FPassing clouds.13 mph69%30.16 "Hg10 mi
7:56 AM30 °FPassing clouds.10 mph72%30.13 "Hg10 mi
6:56 AM29 °FPassing clouds.9 mph75%30.11 "Hg10 mi
5:56 AM29 °FPassing clouds.14 mph75%30.09 "Hg10 mi
4:56 AM30 °FClear.9 mph69%30.07 "Hg10 mi
3:56 AM29 °FClear.9 mph72%30.06 "Hg10 mi
2:56 AM30 °FClear.8 mph75%30.06 "Hg10 mi
1:56 AM31 °FPassing clouds.8 mph79%30.06 "Hg10 mi
12:56 AM31 °FPassing clouds.5 mph85%30.04 "Hg10 mi
11:56 PM
Nov 27
32 °FOvercast.8 mph82%30.04 "Hg10 mi
10:56 PM32 °FPassing clouds.9 mph82%30.05 "Hg10 mi
9:56 PM33 °FMostly cloudy.10 mph82%30.04 "Hg10 mi
8:56 PM33 °FPartly cloudy.12 mph85%30.04 "Hg10 mi
7:56 PM34 °FMostly cloudy.8 mph82%30.03 "Hg10 mi
Weather by CustomWeather, © 2014

See weather overviewHow to use our weather pages